STARLINK-31850, 59903

Orbit data source: Space-Track

STARLINK-31850, 59903 is a payload satellite owned by SpaceX/Seattle (US) in LEO that was launched on Tue, 28 May 2024 UTC via an FALCON 9 launch vehicle from the Air Force Eastern Test Range (AFETR). Payload-class satellites include a variety of spacecraft equipped with specific instruments for various scientific and technological missions. These include communications satellites like Starlink; space stations such as the ISS; scientific satellites like the Hubble; Earth observation satellites from companies like Planet Labs, Umbra, and HawkEye 360; GPS; miniature CubeSats for education and research; and military/defense satellites.

Loading next visibility...
Identifier
59903, 2024-100U
Orbit
LEO
Country
Flag of USUS
Related business
Manufacturer
SpaceX/Seattle
Mission
Operational Commercial Communications
Bus & Motor
STARLINK V2M, Unknown motor
Mass
730 kg wet, ~700 kg dry
Launch date (UTC)
2024-05-28 (1 year ago)
Launch vehicle
FALCON 9
Launch site
Air Force Eastern Test Range (AFETR)
Object type
Payload
Rocket body
Debris
Shape & HBR
Box + 2 Pan, 17.7 m
Radar Cross Section
33.884 m², Large (>1 m²)

Expand to show TLE details & history
Last TLE update: 7 hours ago

TLE from 7 hours ago
0 STARLINK-31850
1 59903U 24100U   25297.70939690 -.00000035  00000-0  82424-5 0  9995
2 59903  43.0012 173.0533 0000763 287.7239  72.3529 15.27576936 80304
Epoch: 2025-10-24T17:01Z
TLE epoch observation values (Epoch: 2025-10-24T17:01:31.892Z)
Latitude
-0.00003°
Longitude
-115.68002°
Altitude
482.675 km
Speed
7.626 km/s
True Right ascension
11h 32m 12s
True Declination
0° 00' 00"
Sunlit
Object was in daylight at epoch
Visualization orbit readout
Latitude
Unknown
Longitude
Unknown
Altitude
Unknown
Speed
Unknown
Apparent Right ascension
Unknown
Apparent Declination
Unknown
Sunlit
N/A
Visualization observer readout
Local Sidereal Time
19:25:25
Azimuth
Unknown
Elevation
Unknown
Doppler factor
Unknown
Orbital elements
Apogee altitude
485.527 km
Perigee altitude
484.48 km
Semi-major axis
6,863.14 km
Eccentricity
0.00008
Inclination
43.0012°
RAAN
173.0533°
Arg. of periapsis
287.7239°
True anomaly
72.36123°
Mean anomaly
72.3529°
Eccentric anomaly
72.35707°
Mean motion
3.81732 °/min
Orbital period
94.31 mins
BSTAR
0.0000082424
Loading maneuver chart data...
Computing Atmospheric mass density...
Loading historical data...
Loading historical data...
Loading historical data...
Loading historical data...
Loading historical data...
Loading historical data...
Loading historical data...

Documentation

Showing up to 5 results
|